Content
SEND FEEDBACK

Daily
Averages
Monthly
Summary
Iran

MASHHAD, IRAN


Home > Middle East > Iran
Elevation: 3214 feet     Latitude: 36 16N     Longitude: 059 38E

WEATHER
 
SELECT A DAY
Number of Records: 209,563;   Date Range: 2/9/98 - 10/23/14
 
SHARE

PRINT THIS DATA

[ ← Previous Day ]
WEATHER ALMANAC - AUGUST 21, 2013
[ Next Day → ]
[ °C ]   °F
Weather ElementAverageHighLow
Temperature80 °F93.2 °F (4:20 pm)64.4 °F (6:20 am)
Dewpoint38 °F46.4 °F (8:20 am)24.8 °F (12:20 am)
Humidity22.6 %34 % (8:00 am)6 % (4:30 pm)
Barometer29.92 in29.98 in (8:00 am)29.67 in (4:30 pm)
Wind Speed6.5 mph16.1 mph (6:20 pm)
Weather ElementAverage
Visibility6 mi
Wind DirectionSE (138.5 °)

Weather ElementTotal
Precipitation---
Cooling Degree Days13.8 (Base 65)
Growing Degree Days28.8 (Base 50)
Averaged from 75 records on August 21, 2013
WEATHER CONDITIONS BREAKOUT
WIND DIRECTION BREAKOUT
WEATHER BY HOUR - AUGUST 21, 2013
[ °C ]   °F
Local TimeTemperatureDewpointHumidityBarometerVisibilityWind DirectionWind SpeedGust SpeedPrecipitationEventsConditions
12:20 AM75.2 °F24.8 °F15 %29.92 inSouth (190°)4.6 mphClear
12:30 AM75.2 °F24.8 °F15 %29.92 inSouth (190°)4.6 mphClear
1:00 AM75.2 °F24.8 °F15 %29.92 inSouth (190°)4.6 mphClear
1:20 AM75.2 °F24.8 °F15 %29.92 inSSW (200°)4.6 mphClear
1:30 AM75.2 °F24.8 °F15 %29.92 inSSW (200°)4.6 mphClear
2:00 AM73.4 °F26.6 °F18 %29.92 inWNW (300°)4.6 mphClear
2:20 AM71.6 °F28.4 °F20 %29.92 inCalmClear
2:30 AM71.6 °F28.4 °F20 %29.92 inCalmClear
2:59 AM68.0 °F32.0 °F26 %29.92 inNW (310°)4.6 mphClear
3:20 AM68.0 °F33.8 °F28 %29.92 inCalmClear
3:30 AM68.0 °F33.8 °F28 %29.92 inCalmClear
4:00 AM68.0 °F33.8 °F28 %29.95 inSSW (200°)4.6 mphClear
4:20 AM66.2 °F33.8 °F30 %29.95 inWSW (240°)4.6 mphClear
4:30 AM67.0 °F34.0 °F18 %29.73 in6.0 miWSW (240°)4.5 mph
4:30 AM66.2 °F33.8 °F30 %29.95 inWSW (240°)4.6 mphClear
5:00 AM66.2 °F32.0 °F28 %29.95 inSW (220°)6.9 mphClear
5:20 AM66.2 °F32.0 °F28 %29.95 inSouth (190°)4.6 mphClear
5:30 AM66.2 °F32.0 °F28 %29.95 inSouth (190°)4.6 mphClear
6:00 AM66.2 °F28.4 °F24 %29.95 inCalmClear
6:20 AM64.4 °F32.0 °F30 %29.95 inCalmClear
6:30 AM64.4 °F32.0 °F30 %29.95 inCalmClear
7:00 AM68.0 °F37.4 °F33 %29.95 inCalmClear
7:20 AM73.4 °F37.4 °F27 %29.95 inCalmClear
7:30 AM73.4 °F37.4 °F27 %29.95 inCalmClear
8:00 AM75.2 °F44.6 °F34 %29.98 in5.0 miNW (310°)4.6 mphClear
8:20 AM77.0 °F46.4 °F34 %29.98 inNNW (340°)9.2 mphClear
8:30 AM77.0 °F46.4 °F34 %29.98 inNNW (340°)9.2 mphClear
9:00 AM80.6 °F44.6 °F28 %29.98 inNNE (20°)4.6 mphClear
9:20 AM80.6 °F42.8 °F26 %29.98 inSouth (180°)4.6 mphClear
9:30 AM80.6 °F42.8 °F26 %29.98 inSouth (180°)4.6 mphClear
10:00 AM84.2 °F42.8 °F23 %29.98 inSouth (180°)4.6 mphClear
10:20 AM84.2 °F44.6 °F25 %29.98 inSE (130°)9.2 mphClear
10:30 AM84.0 °F45.0 °F16 %29.76 in6.0 miSE (130°)8.9 mph
10:30 AM84.2 °F44.6 °F25 %29.98 inSE (130°)9.2 mphClear
11:00 AM86.0 °F46.4 °F25 %29.98 inEast (80°)11.5 mphClear
11:20 AM87.8 °F44.6 °F22 %29.95 inNE (50°)6.9 mphClear
11:30 AM87.8 °F44.6 °F22 %29.95 inNE (50°)6.9 mphClear
12:00 PM87.8 °F44.6 °F22 %29.95 inSE (130°)4.6 mphClear
12:20 PM89.6 °F42.8 °F20 %29.95 inESE (120°)6.9 mphClear
12:30 PM89.6 °F42.8 °F20 %29.95 inESE (120°)6.9 mphClear
1:00 PM89.6 °F42.8 °F20 %29.92 inNE (50°)6.9 mphClear
1:20 PM89.6 °F41.0 °F18 %29.92 inSouth (180°)9.2 mphClear
1:30 PM89.6 °F41.0 °F18 %29.92 inSouth (180°)9.2 mphClear
2:00 PM89.6 °F37.4 °F16 %29.89 inSouth (170°)4.6 mphClear
2:20 PM91.4 °F41.0 °F17 %29.89 inESE (110°)9.2 mphClear
2:30 PM91.4 °F41.0 °F17 %29.89 inESE (110°)9.2 mphClear
3:00 PM91.4 °F37.4 °F15 %29.89 inSE (130°)9.2 mphClear
3:20 PM91.4 °F33.8 °F13 %29.86 inSouth (170°)9.2 mphClear
3:30 PM91.4 °F33.8 °F13 %29.86 inSouth (170°)9.2 mphClear
4:00 PM91.4 °F33.8 °F13 %29.86 inEast (90°)9.2 mphClear
4:20 PM93.2 °F35.6 °F13 %29.86 inSouth (170°)9.2 mphClear
4:30 PM93.0 °F35.0 °F6 %29.67 in7.0 miSouth (170°)8.9 mph
4:30 PM93.2 °F35.6 °F13 %29.86 inSouth (170°)9.2 mphClear
4:55 PM89.6 °F33.8 °F14 %29.86 inENE (70°)9.2 mphClear
5:20 PM91.4 °F35.6 °F14 %29.86 inSE (130°)13.8 mphClear
5:30 PM91.4 °F35.6 °F14 %29.86 inSE (130°)13.8 mphClear
5:55 PM89.6 °F39.2 °F17 %29.86 inENE (70°)9.2 mphClear
6:20 PM87.8 °F39.2 °F18 %29.89 inEast (100°)16.1 mphClear
6:30 PM87.8 °F39.2 °F18 %29.89 inEast (100°)16.1 mphClear
7:00 PM86.0 °F41.0 °F20 %29.89 inEast (100°)16.1 mphClear
7:20 PM84.2 °F41.0 °F22 %29.89 inESE (110°)13.8 mphClear
7:30 PM84.2 °F41.0 °F22 %29.89 inESE (110°)13.8 mphClear
8:00 PM82.4 °F42.8 °F25 %29.92 inESE (110°)9.2 mphClear
8:20 PM80.6 °F42.8 °F26 %29.92 inSE (130°)6.9 mphClear
8:30 PM80.6 °F42.8 °F26 %29.92 inSE (130°)6.9 mphClear
9:00 PM80.6 °F42.8 °F26 %29.92 inSouth (170°)6.9 mphClear
9:20 PM77.0 °F44.6 °F32 %29.95 inSSE (160°)4.6 mphClear
9:30 PM77.0 °F44.6 °F32 %29.95 inSSE (160°)4.6 mphClear
9:55 PM77.0 °F42.8 °F29 %29.95 inSSE (160°)6.9 mphClear
10:20 PM77.0 °F42.8 °F29 %29.95 inSSE (160°)4.6 mphClear
10:30 PM76.0 °F43.0 °F21 %29.73 in6.0 miSSE (160°)4.5 mph
10:30 PM77.0 °F42.8 °F29 %29.95 inSSE (160°)4.6 mphClear
11:00 PM75.2 °F42.8 °F31 %29.95 inSouth (170°)4.6 mphClear
11:20 PM75.2 °F42.8 °F31 %29.95 inSouth (170°)4.6 mphClear
11:30 PM75.2 °F42.8 °F31 %29.95 inSouth (170°)4.6 mphClear
Hourly data recorded from OIMM, located miles away from Mashhad, Iran







STORIES FROM OUR PARTNERS